| time (UTC) | temp F | wind direction | speed MPH | gust MPH | rain 1hr in | rain 24hr in | rain mn in | humidity % | barometer mb |
| 20260502130332 | 72 | 237 | 5.0 | 10.0 | 0.00 | 0.01 | 0.01 | 69 | 1018.0 |
| 20260502123332 | 71 | 208 | 7.0 | 14.0 | 0.00 | 0.01 | 0.01 | 72 | 1018.0 |
| 20260502122832 | 71 | 254 | 6.0 | 14.0 | 0.00 | 0.01 | 0.01 | 72 | 1018.2 |
| 20260502122331 | 71 | 230 | 6.0 | 11.0 | 0.00 | 0.01 | 0.01 | 71 | 1018.2 |
| 20260502121833 | 71 | 229 | 7.0 | 17.0 | 0.00 | 0.01 | 0.01 | 72 | 1018.3 |
| 20260502121333 | 71 | 215 | 6.0 | 17.0 | 0.00 | 0.01 | 0.01 | 70 | 1018.3 |
| 20260502120901 | 71 | 168 | 6.0 | 13.0 | 0.00 | 0.01 | 0.01 | 72 | 1018.4 |
| 20260502115832 | 71 | 238 | 6.0 | 14.0 | 0.00 | 0.01 | 0.01 | 73 | 1018.4 |
| 20260502115332 | 71 | 185 | 7.0 | 15.0 | 0.00 | 0.01 | 0.01 | 71 | 1018.5 |
| 20260502114831 | 71 | 227 | 5.0 | 15.0 | 0.00 | 0.01 | 0.01 | 70 | 1018.6 |
| 20260502114331 | 71 | 258 | 5.0 | 11.0 | 0.00 | 0.01 | 0.01 | 71 | 1018.7 |
| 20260502113833 | 70 | 224 | 6.0 | 14.0 | 0.00 | 0.01 | 0.01 | 72 | 1018.6 |
| 20260502113331 | 70 | 213 | 6.0 | 14.0 | 0.00 | 0.01 | 0.01 | 71 | 1018.7 |
| 20260502112832 | 70 | 164 | 7.0 | 12.0 | 0.00 | 0.01 | 0.01 | 73 | 1018.8 |
| 20260502112334 | 69 | 233 | 6.0 | 13.0 | 0.00 | 0.01 | 0.01 | 74 | 1018.8 |
| 20260502111937 | 69 | 260 | 7.0 | 17.0 | 0.00 | 0.01 | 0.01 | 74 | 1019.0 |
| 20260502110347 | 70 | 235 | 5.0 | 12.0 | 0.00 | 0.01 | 0.01 | 72 | 1018.9 |
| 20260502105831 | 70 | 202 | 5.0 | 11.0 | 0.00 | 0.01 | 0.01 | 73 | 1019.0 |
| 20260502105410 | 69 | 206 | 5.0 | 11.0 | 0.00 | 0.01 | 0.01 | 74 | 1019.0 |
| 20260502104330 | 69 | 239 | 5.0 | 10.0 | 0.00 | 0.01 | 0.01 | 73 | 1019.1 |
| 20260502103830 | 69 | 252 | 5.0 | 10.0 | 0.00 | 0.01 | 0.01 | 74 | 1019.1 |
| 20260502103336 | 68 | 237 | 5.0 | 14.0 | 0.00 | 0.01 | 0.01 | 75 | 1019.2 |
| 20260502102830 | 68 | 138 | 6.0 | 14.0 | 0.00 | 0.01 | 0.01 | 75 | 1019.3 |
| 20260502102408 | 68 | 179 | 6.0 | 12.0 | 0.00 | 0.01 | 0.01 | 75 | 1019.3 |
| 20260502101405 | 67 | 236 | 5.0 | 10.0 | 0.00 | 0.01 | 0.01 | 77 | 1019.3 |
| 20260502100410 | 68 | 176 | 5.0 | 10.0 | 0.00 | 0.01 | 0.01 | 76 | 1019.3 |
| 20260502091327 | 66 | 254 | 4.0 | 8.0 | 0.00 | 0.01 | 0.01 | 79 | 1019.5 |
| 20260502090825 | 66 | 225 | 4.0 | 9.0 | 0.00 | 0.01 | 0.01 | 80 | 1019.5 |
| 20260502090436 | 65 | 164 | 3.0 | 9.0 | 0.00 | 0.01 | 0.01 | 81 | 1019.6 |
| 20260502070849 | 57 | 96 | 1.0 | 3.0 | 0.01 | 0.01 | 0.01 | 85 | 1019.0 |
| 20260502065815 | 57 | 358 | 0.0 | 1.0 | 0.01 | 0.01 | 0.01 | 84 | 1019.2 |
| 20260502065315 | 57 | 358 | 0.0 | 1.0 | 0.01 | 0.01 | 0.01 | 84 | 1019.2 |
| 20260502064813 | 57 | 358 | 1.0 | 3.0 | 0.01 | 0.01 | 0.01 | 83 | 1019.2 |
| 20260502064313 | 57 | 358 | 1.0 | 3.0 | 0.01 | 0.01 | 0.01 | 83 | 1019.0 |
| 20260502063812 | 57 | 294 | 0.0 | 1.0 | 0.01 | 0.01 | 0.01 | 81 | 1019.0 |
| 20260502063315 | 57 | 294 | 1.0 | 3.0 | 0.01 | 0.01 | 0.01 | 80 | 1019.2 |
| 20260502062814 | 57 | 294 | 2.0 | 3.0 | 0.01 | 0.01 | 0.01 | 78 | 1019.2 |
| 20260502062315 | 58 | 228 | 1.0 | 3.0 | 0.01 | 0.01 | 0.01 | 77 | 1019.4 |
| 20260502061835 | 58 | 201 | 1.0 | 5.0 | 0.00 | 0.00 | 0.00 | 75 | 1019.5 |
| 20260502060809 | 57 | 212 | 3.0 | 6.0 | 0.00 | 0.00 | 0.00 | 74 | 1019.6 |
| 20260502060347 | 57 | 186 | 3.0 | 5.0 | 0.00 | 0.00 | 0.00 | 74 | 1019.6 |
| 20260502055309 | 56 | 181 | 2.0 | 6.0 | 0.00 | 0.00 | 0.00 | 76 | 1019.5 |
| 20260502054808 | 55 | 174 | 1.0 | 4.0 | 0.00 | 0.00 | 0.00 | 76 | 1019.5 |
| 20260502054310 | 55 | 199 | 0.0 | 3.0 | 0.00 | 0.00 | 0.00 | 76 | 1019.5 |
| 20260502053836 | 55 | 199 | 0.0 | 1.0 | 0.00 | 0.00 | 0.00 | 75 | 1019.3 |
| 20260502052808 | 55 | 199 | 0.0 | 2.0 | 0.00 | 0.00 | 0.00 | 73 | 1019.3 |
| 20260502052306 | 55 | 199 | 1.0 | 2.0 | 0.00 | 0.00 | 0.00 | 73 | 1019.3 |
| 20260502051806 | 55 | 200 | 1.0 | 3.0 | 0.00 | 0.00 | 0.00 | 73 | 1019.4 |
| 20260502051306 | 55 | 199 | 1.0 | 3.0 | 0.00 | 0.00 | 0.00 | 73 | 1019.3 |
| 20260502050811 | 55 | 199 | 1.0 | 3.0 | 0.00 | 0.00 | 0.00 | 73 | 1019.3 |
| 20260502050306 | 54 | 199 | 0.0 | 3.0 | 0.00 | 0.00 | 0.00 | 72 | 1019.2 |
| 20260502045806 | 54 | 199 | 1.0 | 3.0 | 0.00 | 0.00 | 0.00 | 72 | 1019.2 |
| 20260502045306 | 54 | 199 | 1.0 | 3.0 | 0.00 | 0.00 | 0.00 | 71 | 1019.2 |
| 20260502044807 | 54 | 205 | 1.0 | 3.0 | 0.00 | 0.00 | 0.00 | 71 | 1019.1 |
| 20260502044304 | 54 | 227 | 2.0 | 4.0 | 0.00 | 0.00 | 0.00 | 71 | 1019.2 |
| 20260502043807 | 54 | 199 | 1.0 | 4.0 | 0.00 | 0.00 | 0.00 | 72 | 1019.2 |
| 20260502043310 | 54 | 218 | 2.0 | 6.0 | 0.00 | 0.00 | 0.00 | 72 | 1019.2 |
| 20260502042807 | 54 | 189 | 3.0 | 6.0 | 0.00 | 0.00 | 0.00 | 73 | 1019.3 |
| 20260502042306 | 53 | 224 | 2.0 | 5.0 | 0.00 | 0.00 | 0.00 | 75 | 1019.3 |
| 20260502041805 | 53 | 212 | 1.0 | 5.0 | 0.00 | 0.00 | 0.00 | 75 | 1019.3 |
| 20260502041332 | 53 | 293 | 2.0 | 5.0 | 0.00 | 0.00 | 0.00 | 75 | 1019.0 |
| 20260502040337 | 53 | 163 | 2.0 | 3.0 | 0.00 | 0.00 | 0.00 | 75 | 1019.1 |
| 20260502035306 | 52 | 170 | 1.0 | 3.0 | 0.00 | 0.00 | 0.00 | 75 | 1019.2 |
| 20260502034805 | 52 | 173 | 1.0 | 3.0 | 0.00 | 0.00 | 0.00 | 75 | 1019.2 |
| 20260502034303 | 52 | 162 | 1.0 | 4.0 | 0.00 | 0.00 | 0.00 | 75 | 1019.1 |
| 20260502033805 | 52 | 160 | 1.0 | 4.0 | 0.00 | 0.00 | 0.00 | 75 | 1019.2 |
| 20260502033339 | 52 | 199 | 1.0 | 5.0 | 0.00 | 0.00 | 0.00 | 74 | 1019.3 |
| 20260502032309 | 52 | 116 | 2.0 | 5.0 | 0.00 | 0.00 | 0.00 | 74 | 1019.3 |
| 20260502031806 | 52 | 112 | 1.0 | 5.0 | 0.00 | 0.00 | 0.00 | 74 | 1019.2 |
| 20260502031303 | 52 | 172 | 1.0 | 2.0 | 0.00 | 0.00 | 0.00 | 74 | 1019.4 |
| 20260502030807 | 52 | 141 | 2.0 | 5.0 | 0.00 | 0.00 | 0.00 | 74 | 1019.3 |
| 20260502030344 | 52 | 160 | 2.0 | 5.0 | 0.00 | 0.00 | 0.00 | 75 | 1019.4 |
| 20260502025306 | 51 | 125 | 2.0 | 5.0 | 0.00 | 0.00 | 0.00 | 77 | 1019.5 |
| 20260502024802 | 51 | 176 | 1.0 | 3.0 | 0.00 | 0.00 | 0.00 | 77 | 1019.5 |
| 20260502024303 | 51 | 167 | 1.0 | 3.0 | 0.00 | 0.00 | 0.00 | 78 | 1019.5 |
| 20260502023802 | 51 | 85 | 2.0 | 4.0 | 0.00 | 0.00 | 0.00 | 78 | 1019.4 |
| 20260502023303 | 51 | 78 | 1.0 | 4.0 | 0.00 | 0.00 | 0.00 | 77 | 1019.4 |
| 20260502022801 | 51 | 245 | 1.0 | 4.0 | 0.00 | 0.00 | 0.00 | 78 | 1019.7 |
| 20260502022306 | 51 | 125 | 1.0 | 3.0 | 0.00 | 0.00 | 0.00 | 79 | 1019.5 |
| 20260502021903 | 51 | 141 | 1.0 | 2.0 | 0.00 | 0.00 | 0.00 | 78 | 1019.6 |
| 20260502020307 | 52 | 148 | 1.0 | 2.0 | 0.00 | 0.00 | 0.00 | 76 | 1019.7 |
| 20260502015933 | 52 | 148 | 1.0 | 2.0 | 0.00 | 0.00 | 0.00 | 76 | 1019.8 |
| 20260502013758 | 52 | 139 | 1.0 | 4.0 | 0.00 | 0.00 | 0.00 | 76 | 1019.8 |
| 20260502013258 | 52 | 133 | 2.0 | 4.0 | 0.00 | 0.00 | 0.00 | 76 | 1019.8 |
| 20260502012756 | 52 | 147 | 2.0 | 3.0 | 0.00 | 0.00 | 0.00 | 77 | 1019.9 |
| 20260502012256 | 52 | 129 | 1.0 | 4.0 | 0.00 | 0.00 | 0.00 | 77 | 1019.9 |
| 20260502011753 | 52 | 133 | 1.0 | 4.0 | 0.00 | 0.00 | 0.00 | 78 | 1019.9 |
| 20260502011254 | 52 | 160 | 2.0 | 4.0 | 0.00 | 0.00 | 0.00 | 78 | 1020.0 |
| 20260502010758 | 52 | 166 | 1.0 | 4.0 | 0.00 | 0.00 | 0.00 | 79 | 1020.0 |
| 20260502010254 | 52 | 131 | 1.0 | 2.0 | 0.00 | 0.00 | 0.00 | 79 | 1020.0 |
| 20260502005754 | 52 | 131 | 1.0 | 2.0 | 0.00 | 0.00 | 0.00 | 80 | 1020.1 |
| 20260502005253 | 52 | 131 | 1.0 | 3.0 | 0.00 | 0.00 | 0.00 | 80 | 1020.1 |
| 20260502004751 | 52 | 131 | 1.0 | 3.0 | 0.00 | 0.00 | 0.00 | 80 | 1020.1 |
| 20260502004406 | 52 | 108 | 1.0 | 3.0 | 0.00 | 0.00 | 0.00 | 79 | 1020.1 |
| 20260502002825 | 53 | 115 | 1.0 | 2.0 | 0.00 | 0.00 | 0.00 | 80 | 1020.3 |
| 20260502001749 | 53 | 116 | 1.0 | 2.0 | 0.00 | 0.00 | 0.00 | 79 | 1020.4 |
| 20260502001249 | 53 | 116 | 1.0 | 2.0 | 0.00 | 0.00 | 0.00 | 79 | 1020.4 |
| 20260502000814 | 53 | 116 | 1.0 | 2.0 | 0.00 | 0.00 | 0.00 | 78 | 1020.4 |
| 20260501235744 | 53 | 116 | 1.0 | 2.0 | 0.00 | 0.00 | 0.00 | 78 | 1020.5 |
| 20260501235244 | 53 | 116 | 1.0 | 2.0 | 0.00 | 0.00 | 0.00 | 78 | 1020.5 |
| 20260501234744 | 53 | 115 | 1.0 | 2.0 | 0.00 | 0.00 | 0.00 | 78 | 1020.6 |
| 20260501234240 | 52 | 116 | 1.0 | 2.0 | 0.00 | 0.00 | 0.00 | 77 | 1020.5 |
| 20260501233743 | 53 | 116 | 1.0 | 2.0 | 0.00 | 0.00 | 0.00 | 77 | 1020.6 |
| 20260501233240 | 53 | 115 | 1.0 | 2.0 | 0.00 | 0.00 | 0.00 | 77 | 1020.6 |
| 20260501232741 | 53 | 116 | 1.0 | 2.0 | 0.00 | 0.00 | 0.00 | 76 | 1020.7 |
| 20260501232400 | 53 | 116 | 1.0 | 2.0 | 0.00 | 0.00 | 0.00 | 76 | 1020.7 |
| 20260501231236 | 54 | 119 | 1.0 | 3.0 | 0.00 | 0.00 | 0.00 | 76 | 1020.8 |
| 20260501230740 | 54 | 119 | 1.0 | 2.0 | 0.00 | 0.00 | 0.00 | 76 | 1020.8 |
| 20260501230239 | 54 | 119 | 1.0 | 2.0 | 0.00 | 0.00 | 0.00 | 76 | 1020.8 |
| 20260501225738 | 54 | 119 | 1.0 | 2.0 | 0.00 | 0.00 | 0.00 | 76 | 1020.8 |
| 20260501225237 | 54 | 119 | 1.0 | 2.0 | 0.00 | 0.00 | 0.00 | 76 | 1020.8 |
| 20260501224736 | 54 | 119 | 1.0 | 2.0 | 0.00 | 0.00 | 0.00 | 76 | 1020.9 |
| 20260501224237 | 54 | 119 | 1.0 | 2.0 | 0.00 | 0.00 | 0.00 | 76 | 1020.9 |
| 20260501223732 | 54 | 117 | 1.0 | 2.0 | 0.00 | 0.00 | 0.00 | 77 | 1020.9 |
| 20260501223231 | 53 | 113 | 1.0 | 2.0 | 0.00 | 0.00 | 0.00 | 78 | 1020.9 |
| 20260501222731 | 53 | 113 | 1.0 | 2.0 | 0.00 | 0.00 | 0.00 | 78 | 1021.0 |
| 20260501222233 | 53 | 113 | 1.0 | 2.0 | 0.00 | 0.00 | 0.00 | 78 | 1021.1 |
| 20260501221731 | 53 | 113 | 1.0 | 2.0 | 0.00 | 0.00 | 0.00 | 78 | 1021.0 |
| 20260501221231 | 53 | 93 | 0.0 | 2.0 | 0.00 | 0.00 | 0.00 | 79 | 1021.0 |
| 20260501220731 | 53 | 318 | 0.0 | 1.0 | 0.00 | 0.00 | 0.00 | 80 | 1021.1 |
| 20260501220229 | 53 | 318 | 0.0 | 0.0 | 0.00 | 0.00 | 0.00 | 81 | 1021.0 |
| 20260501215729 | 54 | 318 | 0.0 | 1.0 | 0.00 | 0.00 | 0.00 | 80 | 1021.0 |
| 20260501215228 | 54 | 318 | 0.0 | 1.0 | 0.00 | 0.00 | 0.00 | 80 | 1021.0 |
| 20260501214731 | 54 | 318 | 0.0 | 0.0 | 0.00 | 0.00 | 0.00 | 80 | 1021.1 |
| 20260501214228 | 54 | 318 | 0.0 | 1.0 | 0.00 | 0.00 | 0.00 | 79 | 1021.1 |
| 20260501213729 | 54 | 318 | 0.0 | 1.0 | 0.00 | 0.00 | 0.00 | 79 | 1021.1 |
| 20260501213229 | 54 | 318 | 1.0 | 2.0 | 0.00 | 0.00 | 0.00 | 79 | 1021.1 |
| 20260501212728 | 55 | 318 | 1.0 | 2.0 | 0.00 | 0.00 | 0.00 | 79 | 1021.1 |
| 20260501212249 | 55 | 318 | 0.0 | 1.0 | 0.00 | 0.00 | 0.00 | 80 | 1021.1 |
| 20260501211247 | 55 | 318 | 0.0 | 1.0 | 0.00 | 0.00 | 0.00 | 78 | 1021.1 |
| 20260501210225 | 56 | 318 | 1.0 | 1.0 | 0.00 | 0.00 | 0.00 | 75 | 1021.1 |
| 20260501205726 | 56 | 318 | 1.0 | 2.0 | 0.00 | 0.00 | 0.00 | 75 | 1021.2 |
| 20260501205222 | 56 | 318 | 1.0 | 2.0 | 0.00 | 0.00 | 0.00 | 74 | 1021.2 |
| 20260501204723 | 57 | 318 | 1.0 | 2.0 | 0.00 | 0.00 | 0.00 | 72 | 1021.2 |
| 20260501204223 | 57 | 318 | 0.0 | 2.0 | 0.00 | 0.00 | 0.00 | 72 | 1021.2 |
| 20260501203719 | 58 | 318 | 0.0 | 1.0 | 0.00 | 0.00 | 0.00 | 72 | 1021.2 |
| 20260501203221 | 58 | 318 | 0.0 | 2.0 | 0.00 | 0.00 | 0.00 | 70 | 1021.2 |
| 20260501202718 | 58 | 318 | 1.0 | 2.0 | 0.00 | 0.00 | 0.00 | 69 | 1021.3 |
| 20260501202216 | 58 | 318 | 0.0 | 2.0 | 0.00 | 0.00 | 0.00 | 70 | 1021.3 |
| 20260501201716 | 59 | 318 | 0.0 | 0.0 | 0.00 | 0.00 | 0.00 | 70 | 1021.2 |
| 20260501201214 | 59 | 318 | 0.0 | 0.0 | 0.00 | 0.00 | 0.00 | 69 | 1021.3 |
| 20260501200714 | 59 | 318 | 0.0 | 1.0 | 0.00 | 0.00 | 0.00 | 68 | 1021.3 |
| 20260501200215 | 60 | 318 | 0.0 | 1.0 | 0.00 | 0.00 | 0.00 | 67 | 1021.3 |
| 20260501195714 | 60 | 318 | 0.0 | 0.0 | 0.00 | 0.00 | 0.00 | 64 | 1021.3 |
| 20260501195244 | 60 | 318 | 0.0 | 1.0 | 0.00 | 0.00 | 0.00 | 62 | 1021.2 |
| 20260501194210 | 60 | 318 | 0.0 | 2.0 | 0.00 | 0.00 | 0.00 | 62 | 1021.2 |
| 20260501193710 | 60 | 318 | 0.0 | 2.0 | 0.00 | 0.00 | 0.00 | 65 | 1021.2 |
| 20260501193206 | 61 | 50 | 0.0 | 2.0 | 0.00 | 0.00 | 0.00 | 66 | 1021.2 |
| 20260501192712 | 61 | 50 | 0.0 | 2.0 | 0.00 | 0.00 | 0.00 | 67 | 1021.2 |
| 20260501192209 | 62 | 50 | 1.0 | 2.0 | 0.00 | 0.00 | 0.00 | 67 | 1021.2 |
| 20260501191708 | 62 | 50 | 1.0 | 2.0 | 0.00 | 0.00 | 0.00 | 65 | 1021.1 |
| 20260501191210 | 63 | 50 | 1.0 | 2.0 | 0.00 | 0.00 | 0.00 | 64 | 1021.1 |
| 20260501190802 | 64 | 50 | 1.0 | 2.0 | 0.00 | 0.00 | 0.00 | 62 | 1021.1 |
| 20260501185208 | 67 | 50 | 1.0 | 2.0 | 0.00 | 0.00 | 0.00 | 56 | 1021.1 |
| 20260501184708 | 68 | 51 | 1.0 | 2.0 | 0.00 | 0.00 | 0.00 | 54 | 1021.0 |
| 20260501184210 | 69 | 50 | 1.0 | 2.0 | 0.00 | 0.00 | 0.00 | 48 | 1021.1 |
| 20260501183706 | 70 | 50 | 1.0 | 2.0 | 0.00 | 0.00 | 0.00 | 46 | 1021.0 |
| 20260501183239 | 71 | 51 | 1.0 | 2.0 | 0.00 | 0.00 | 0.00 | 43 | 1021.0 |
| 20260501182207 | 72 | 51 | 1.0 | 3.0 | 0.00 | 0.00 | 0.00 | 39 | 1021.0 |
| 20260501181711 | 73 | 177 | 2.0 | 5.0 | 0.00 | 0.00 | 0.00 | 33 | 1021.0 |
| 20260501181208 | 74 | 177 | 2.0 | 5.0 | 0.00 | 0.00 | 0.00 | 29 | 1021.0 |
| 20260501180705 | 74 | 162 | 3.0 | 4.0 | 0.00 | 0.00 | 0.00 | 28 | 1021.1 |
| 20260501180205 | 74 | 179 | 3.0 | 5.0 | 0.00 | 0.00 | 0.00 | 28 | 1021.1 |
| 20260501175751 | 74 | 155 | 3.0 | 7.0 | 0.00 | 0.00 | 0.00 | 28 | 1021.0 |
| 20260501174711 | 74 | 162 | 3.0 | 7.0 | 0.00 | 0.00 | 0.00 | 30 | 1021.0 |
| 20260501174205 | 74 | 162 | 2.0 | 6.0 | 0.00 | 0.00 | 0.00 | 29 | 1021.0 |
| 20260501173704 | 74 | 162 | 1.0 | 4.0 | 0.00 | 0.00 | 0.00 | 35 | 1021.0 |
| 20260501173206 | 74 | 167 | 1.0 | 4.0 | 0.00 | 0.00 | 0.00 | 34 | 1021.0 |
| 20260501172702 | 75 | 179 | 1.0 | 4.0 | 0.00 | 0.00 | 0.00 | 32 | 1021.0 |
| 20260501172205 | 75 | 165 | 1.0 | 4.0 | 0.00 | 0.00 | 0.00 | 31 | 1021.0 |
| 20260501171733 | 75 | 149 | 1.0 | 4.0 | 0.00 | 0.00 | 0.00 | 31 | 1021.0 |
| 20260501170703 | 74 | 133 | 2.0 | 7.0 | 0.00 | 0.00 | 0.00 | 31 | 1021.0 |
| 20260501170202 | 74 | 158 | 3.0 | 7.0 | 0.00 | 0.00 | 0.00 | 32 | 1021.0 |
| 20260501165808 | 74 | 73 | 2.0 | 7.0 | 0.00 | 0.00 | 0.00 | 33 | 1021.1 |
| 20260501164159 | 75 | 78 | 3.0 | 8.0 | 0.00 | 0.00 | 0.00 | 35 | 1021.3 |
| 20260501163733 | 75 | 80 | 2.0 | 7.0 | 0.00 | 0.00 | 0.00 | 33 | 1021.2 |
| 20260501162700 | 75 | 93 | 3.0 | 6.0 | 0.00 | 0.00 | 0.00 | 33 | 1021.4 |
| 20260501162158 | 75 | 109 | 3.0 | 7.0 | 0.00 | 0.00 | 0.00 | 33 | 1021.5 |
| 20260501161656 | 75 | 82 | 3.0 | 7.0 | 0.00 | 0.00 | 0.00 | 33 | 1021.5 |
| 20260501161155 | 75 | 64 | 3.0 | 7.0 | 0.00 | 0.00 | 0.00 | 33 | 1021.5 |
| 20260501160654 | 75 | 87 | 4.0 | 10.0 | 0.00 | 0.00 | 0.00 | 33 | 1021.5 |
| 20260501160154 | 75 | 102 | 4.0 | 10.0 | 0.00 | 0.00 | 0.00 | 35 | 1021.6 |
| 20260501155654 | 75 | 60 | 3.0 | 9.0 | 0.00 | 0.00 | 0.00 | 35 | 1021.6 |
| 20260501154805 | 75 | 65 | 4.0 | 9.0 | 0.00 | 0.00 | 0.00 | 34 | 1021.7 |
| 20260501153653 | 75 | 167 | 4.0 | 11.0 | 0.00 | 0.00 | 0.00 | 29 | 1021.7 |
| 20260501153154 | 75 | 164 | 5.0 | 11.0 | 0.00 | 0.00 | 0.00 | 30 | 1021.9 |
| 20260501152653 | 75 | 79 | 5.0 | 10.0 | 0.00 | 0.00 | 0.00 | 31 | 1021.9 |
| 20260501152150 | 75 | 80 | 4.0 | 10.0 | 0.00 | 0.00 | 0.00 | 30 | 1022.0 |
| 20260501151650 | 75 | 101 | 3.0 | 10.0 | 0.00 | 0.00 | 0.00 | 30 | 1022.0 |
| 20260501151147 | 76 | 117 | 3.0 | 9.0 | 0.00 | 0.00 | 0.00 | 30 | 1022.0 |
| 20260501150647 | 76 | 106 | 4.0 | 8.0 | 0.00 | 0.00 | 0.00 | 30 | 1022.1 |
| 20260501150149 | 76 | 114 | 3.0 | 8.0 | 0.00 | 0.00 | 0.00 | 29 | 1022.2 |
| 20260501145647 | 76 | 54 | 3.0 | 11.0 | 0.00 | 0.00 | 0.00 | 28 | 1022.2 |
| 20260501145149 | 76 | 94 | 4.0 | 11.0 | 0.00 | 0.00 | 0.00 | 31 | 1022.3 |
| 20260501144648 | 76 | 61 | 5.0 | 10.0 | 0.00 | 0.00 | 0.00 | 31 | 1022.3 |
| 20260501144149 | 77 | 116 | 4.0 | 10.0 | 0.00 | 0.00 | 0.00 | 31 | 1022.4 |
| 20260501143644 | 76 | 133 | 4.0 | 9.0 | 0.00 | 0.00 | 0.00 | 27 | 1022.5 |
| 20260501143146 | 77 | 71 | 4.0 | 9.0 | 0.00 | 0.00 | 0.00 | 30 | 1022.5 |
| 20260501142646 | 77 | 87 | 3.0 | 9.0 | 0.00 | 0.00 | 0.00 | 29 | 1022.5 |
| 20260501142145 | 76 | 155 | 4.0 | 10.0 | 0.00 | 0.00 | 0.00 | 28 | 1022.5 |
| 20260501141723 | 76 | 235 | 5.0 | 11.0 | 0.00 | 0.00 | 0.00 | 32 | 1022.6 |
| 20260501140640 | 75 | 158 | 5.0 | 12.0 | 0.00 | 0.00 | 0.00 | 32 | 1022.7 |
| 20260501140139 | 75 | 122 | 5.0 | 14.0 | 0.00 | 0.00 | 0.00 | 29 | 1022.8 |
| 20260501135637 | 76 | 134 | 5.0 | 14.0 | 0.00 | 0.00 | 0.00 | 29 | 1022.8 |
| 20260501135139 | 76 | 158 | 5.0 | 13.0 | 0.00 | 0.00 | 0.00 | 27 | 1022.9 |
| 20260501134637 | 74 | 174 | 5.0 | 13.0 | 0.00 | 0.00 | 0.00 | 34 | 1022.9 |
| 20260501134142 | 75 | 50 | 5.0 | 12.0 | 0.00 | 0.00 | 0.00 | 32 | 1022.9 |
| 20260501133729 | 74 | 95 | 5.0 | 12.0 | 0.00 | 0.00 | 0.00 | 30 | 1023.0 |